owner,sensor,date,latitude,longitude,vertical_datum,sea_water_practical_salinity,qcFlag 
DISL,ioos:station:DISL:DISL:1,2013-12-01T00:00:00Z,30.2513,-88.0778,2.385,30.75,1111122 
DISL,ioos:station:DISL:DISL:1,2013-12-01T00:30:00Z,30.2513,-88.0778,2.395,29.23,1111122 
DISL,ioos:station:DISL:DISL:1,2013-12-01T01:00:00Z,30.2513,-88.0778,2.427,27.61,1111122 
DISL,ioos:station:DISL:DISL:1,2013-12-01T01:30:00Z,30.2513,-88.0778,2.467,25.38,1111122 
DISL,ioos:station:DISL:DISL:1,2013-12-01T02:00:00Z,30.2513,-88.0778,2.472,25.49,1111122 
DISL,ioos:station:DISL:DISL:1,2013-12-01T02:30:00Z,30.2513,-88.0778,2.472,25.56,1111122 
DISL,ioos:station:DISL:DISL:1,2013-12-01T03:00:00Z,30.2513,-88.0778,2.465,25.45,1111122 
DISL,ioos:station:DISL:DISL:1,2013-12-01T03:30:00Z,30.2513,-88.0778,2.45,25.43,1111122 
DISL,ioos:station:DISL:DISL:1,2013-12-01T04:00:00Z,30.2513,-88.0778,2.438,25.36,1111122 
DISL,ioos:station:DISL:DISL:1,2013-12-01T04:30:00Z,30.2513,-88.0778,2.409,25.28,1111122 
DISL,ioos:station:DISL:DISL:1,2013-12-01T05:00:00Z,30.2513,-88.0778,2.401,25.31,1111122 
DISL,ioos:station:DISL:DISL:1,2013-12-01T05:30:00Z,30.2513,-88.0778,2.357,25.18,1111122 
DISL,ioos:station:DISL:DISL:1,2013-12-01T06:00:00Z,30.2513,-88.0778,2.337,25.09,1111122 
DISL,ioos:station:DISL:DISL:1,2013-12-01T06:30:00Z,30.2513,-88.0778,2.291,24.73,1111122 
DISL,ioos:station:DISL:DISL:1,2013-12-01T07:00:00Z,30.2513,-88.0778,2.261,21.8,1111122 
DISL,ioos:station:DISL:DISL:1,2013-12-01T07:30:00Z,30.2513,-88.0778,2.239,21.33,1111122 
DISL,ioos:station:DISL:DISL:1,2013-12-01T08:00:00Z,30.2513,-88.0778,2.214,21.83,1111122 
DISL,ioos:station:DISL:DISL:1,2013-12-01T08:30:00Z,30.2513,-88.0778,2.194,21.82,1111122 
DISL,ioos:station:DISL:DISL:1,2013-12-01T09:00:00Z,30.2513,-88.0778,2.16,21.83,1111122 
DISL,ioos:station:DISL:DISL:1,2013-12-01T09:30:00Z,30.2513,-88.0778,2.157,21.68,1111122 
DISL,ioos:station:DISL:DISL:1,2013-12-01T10:00:00Z,30.2513,-88.0778,2.114,21.49,1111122 
DISL,ioos:station:DISL:DISL:1,2013-12-01T10:30:00Z,30.2513,-88.0778,2.094,21.4,1111122 
DISL,ioos:station:DISL:DISL:1,2013-12-01T11:00:00Z,30.2513,-88.0778,2.086,21.28,1111122 
DISL,ioos:station:DISL:DISL:1,2013-12-01T11:30:00Z,30.2513,-88.0778,2.155,21.11,1111122 
DISL,ioos:station:DISL:DISL:1,2013-12-01T12:00:00Z,30.2513,-88.0778,2.08,21.04,1111122 
DISL,ioos:station:DISL:DISL:1,2013-12-01T12:30:00Z,30.2513,-88.0778,2.052,20.94,1111122 
DISL,ioos:station:DISL:DISL:1,2013-12-01T13:00:00Z,30.2513,-88.0778,2.078,20.9,1111122 
DISL,ioos:station:DISL:DISL:1,2013-12-01T13:30:00Z,30.2513,-88.0778,2.07,20.87,1111122 
DISL,ioos:station:DISL:DISL:1,2013-12-01T14:00:00Z,30.2513,-88.0778,2.108,20.8,1111122 
DISL,ioos:station:DISL:DISL:1,2013-12-01T14:30:00Z,30.2513,-88.0778,2.092,20.83,1111122 
DISL,ioos:station:DISL:DISL:1,2013-12-01T15:00:00Z,30.2513,-88.0778,2.146,21.09,1111122 
DISL,ioos:station:DISL:DISL:1,2013-12-01T15:30:00Z,30.2513,-88.0778,2.124,22.64,1111122 
DISL,ioos:station:DISL:DISL:1,2013-12-01T16:00:00Z,30.2513,-88.0778,2.124,23.95,1111122 
DISL,ioos:station:DISL:DISL:1,2013-12-01T16:30:00Z,30.2513,-88.0778,2.108,23.95,1111122 
DISL,ioos:station:DISL:DISL:1,2013-12-01T17:00:00Z,30.2513,-88.0778,2.115,23.63,1111122 
DISL,ioos:station:DISL:DISL:1,2013-12-01T17:30:00Z,30.2513,-88.0778,2.14,22.11,1111122 
DISL,ioos:station:DISL:DISL:1,2013-12-01T18:00:00Z,30.2513,-88.0778,2.153,21.59,1111122 
DISL,ioos:station:DISL:DISL:1,2013-12-01T18:30:00Z,30.2513,-88.0778,2.18,21.45,1111122 
DISL,ioos:station:DISL:DISL:1,2013-12-01T19:00:00Z,30.2513,-88.0778,2.194,21.72,1111122 
DISL,ioos:station:DISL:DISL:1,2013-12-01T19:30:00Z,30.2513,-88.0778,2.193,24.55,1111122 
DISL,ioos:station:DISL:DISL:1,2013-12-01T20:00:00Z,30.2513,-88.0778,2.185,24.97,1111122 
DISL,ioos:station:DISL:DISL:1,2013-12-01T20:30:00Z,30.2513,-88.0778,2.248,24.65,1111122 
DISL,ioos:station:DISL:DISL:1,2013-12-01T21:00:00Z,30.2513,-88.0778,2.268,25.5,1111122 
DISL,ioos:station:DISL:DISL:1,2013-12-01T21:30:00Z,30.2513,-88.0778,2.296,24.92,1111122 
DISL,ioos:station:DISL:DISL:1,2013-12-01T22:00:00Z,30.2513,-88.0778,2.335,25.36,1111122 
DISL,ioos:station:DISL:DISL:1,2013-12-01T22:30:00Z,30.2513,-88.0778,2.371,26.22,1111122 
DISL,ioos:station:DISL:DISL:1,2013-12-01T23:00:00Z,30.2513,-88.0778,2.389,26.46,1111122 
DISL,ioos:station:DISL:DISL:1,2013-12-01T23:30:00Z,30.2513,-88.0778,2.414,26.37,1111122 
DISL,ioos:station:DISL:DISL:1,2013-12-02T00:00:00Z,30.2513,-88.0778,2.464,26.2,1111122 
DISL,ioos:station:DISL:DISL:1,2013-12-02T00:30:00Z,30.2513,-88.0778,2.485,25.57,1111122 
DISL,ioos:station:DISL:DISL:1,2013-12-02T01:00:00Z,30.2513,-88.0778,2.51,26.51,1111122 
DISL,ioos:station:DISL:DISL:1,2013-12-02T01:30:00Z,30.2513,-88.0778,2.523,25.34,1111122 
DISL,ioos:station:DISL:DISL:1,2013-12-02T02:00:00Z,30.2513,-88.0778,2.544,25.48,1111122 
DISL,ioos:station:DISL:DISL:1,2013-12-02T02:30:00Z,30.2513,-88.0778,2.545,23.39,1111122 
DISL,ioos:station:DISL:DISL:1,2013-12-02T03:00:00Z,30.2513,-88.0778,2.562,21.58,1111122 
DISL,ioos:station:DISL:DISL:1,2013-12-02T03:30:00Z,30.2513,-88.0778,2.564,21.51,1111122 
DISL,ioos:station:DISL:DISL:1,2013-12-02T04:00:00Z,30.2513,-88.0778,2.54,21.58,1111122 
DISL,ioos:station:DISL:DISL:1,2013-12-02T04:30:00Z,30.2513,-88.0778,2.519,21.75,1111122 
DISL,ioos:station:DISL:DISL:1,2013-12-02T05:00:00Z,30.2513,-88.0778,2.455,21.78,1111122 
DISL,ioos:station:DISL:DISL:1,2013-12-02T05:30:00Z,30.2513,-88.0778,2.451,21.76,1111122 
DISL,ioos:station:DISL:DISL:1,2013-12-02T06:00:00Z,30.2513,-88.0778,2.413,21.79,1111122 
DISL,ioos:station:DISL:DISL:1,2013-12-02T06:30:00Z,30.2513,-88.0778,2.366,21.79,1111122 
DISL,ioos:station:DISL:DISL:1,2013-12-02T07:00:00Z,30.2513,-88.0778,2.325,21.78,1111122 
DISL,ioos:station:DISL:DISL:1,2013-12-02T07:30:00Z,30.2513,-88.0778,2.285,20.87,1111122 
DISL,ioos:station:DISL:DISL:1,2013-12-02T08:00:00Z,30.2513,-88.0778,2.25,20.11,1111122 
DISL,ioos:station:DISL:DISL:1,2013-12-02T08:30:00Z,30.2513,-88.0778,2.22,17.41,1111122 
DISL,ioos:station:DISL:DISL:1,2013-12-02T09:00:00Z,30.2513,-88.0778,2.157,16.45,1111122 
DISL,ioos:station:DISL:DISL:1,2013-12-02T09:30:00Z,30.2513,-88.0778,2.118,16.42,1111122 
DISL,ioos:station:DISL:DISL:1,2013-12-02T10:00:00Z,30.2513,-88.0778,2.094,16.43,1111122 
DISL,ioos:station:DISL:DISL:1,2013-12-02T10:30:00Z,30.2513,-88.0778,2.079,15.96,1111122 
DISL,ioos:station:DISL:DISL:1,2013-12-02T11:00:00Z,30.2513,-88.0778,2.051,15.74,1111122 
DISL,ioos:station:DISL:DISL:1,2013-12-02T11:30:00Z,30.2513,-88.0778,2.013,15.8,1111122 
DISL,ioos:station:DISL:DISL:1,2013-12-02T12:00:00Z,30.2513,-88.0778,2.007,15.69,1111122 
DISL,ioos:station:DISL:DISL:1,2013-12-02T12:30:00Z,30.2513,-88.0778,1.986,15.65,1111122 
DISL,ioos:station:DISL:DISL:1,2013-12-02T13:00:00Z,30.2513,-88.0778,1.97,15.86,1111122 
DISL,ioos:station:DISL:DISL:1,2013-12-02T13:30:00Z,30.2513,-88.0778,1.937,15.97,1111122 
DISL,ioos:station:DISL:DISL:1,2013-12-02T14:00:00Z,30.2513,-88.0778,1.943,15.78,1111122 
DISL,ioos:station:DISL:DISL:1,2013-12-02T14:30:00Z,30.2513,-88.0778,1.949,15.98,1111122 
DISL,ioos:station:DISL:DISL:1,2013-12-02T15:00:00Z,30.2513,-88.0778,1.927,17.88,1111122 
DISL,ioos:station:DISL:DISL:1,2013-12-02T15:30:00Z,30.2513,-88.0778,1.947,19.61,1111122 
DISL,ioos:station:DISL:DISL:1,2013-12-02T16:00:00Z,30.2513,-88.0778,1.966,19.81,1111122 
DISL,ioos:station:DISL:DISL:1,2013-12-02T16:30:00Z,30.2513,-88.0778,1.966,19.74,1111122 
DISL,ioos:station:DISL:DISL:1,2013-12-02T17:00:00Z,30.2513,-88.0778,1.982,20.0,1111122 
DISL,ioos:station:DISL:DISL:1,2013-12-02T17:30:00Z,30.2513,-88.0778,1.976,19.86,1111122 
DISL,ioos:station:DISL:DISL:1,2013-12-02T18:00:00Z,30.2513,-88.0778,2.004,19.26,1111122 
DISL,ioos:station:DISL:DISL:1,2013-12-02T18:30:00Z,30.2513,-88.0778,2.021,18.04,1111122 
DISL,ioos:station:DISL:DISL:1,2013-12-02T19:00:00Z,30.2513,-88.0778,2.018,17.01,1111122 
DISL,ioos:station:DISL:DISL:1,2013-12-02T19:30:00Z,30.2513,-88.0778,2.058,16.92,1111122 
DISL,ioos:station:DISL:DISL:1,2013-12-02T20:00:00Z,30.2513,-88.0778,2.055,16.88,1111122 
DISL,ioos:station:DISL:DISL:1,2013-12-02T20:30:00Z,30.2513,-88.0778,2.084,21.16,1111122 
DISL,ioos:station:DISL:DISL:1,2013-12-02T21:00:00Z,30.2513,-88.0778,2.15,21.49,1111122 
DISL,ioos:station:DISL:DISL:1,2013-12-02T21:30:00Z,30.2513,-88.0778,2.155,20.97,1111122 
DISL,ioos:station:DISL:DISL:1,2013-12-02T22:00:00Z,30.2513,-88.0778,2.188,22.17,1111122 
DISL,ioos:station:DISL:DISL:1,2013-12-02T22:30:00Z,30.2513,-88.0778,2.227,23.22,1111122 
DISL,ioos:station:DISL:DISL:1,2013-12-02T23:00:00Z,30.2513,-88.0778,2.267,22.07,1111122 
DISL,ioos:station:DISL:DISL:1,2013-12-02T23:30:00Z,30.2513,-88.0778,2.314,22.24,1111122 
DISL,ioos:station:DISL:DISL:1,2013-12-03T00:00:00Z,30.2513,-88.0778,2.357,22.02,1111122 
DISL,ioos:station:DISL:DISL:1,2013-12-03T00:30:00Z,30.2513,-88.0778,2.409,21.53,1111122 
DISL,ioos:station:DISL:DISL:1,2013-12-03T01:00:00Z,30.2513,-88.0778,2.439,22.49,1111122 
DISL,ioos:station:DISL:DISL:1,2013-12-03T01:30:00Z,30.2513,-88.0778,2.473,22.58,1111122 
DISL,ioos:station:DISL:DISL:1,2013-12-03T02:00:00Z,30.2513,-88.0778,2.502,22.28,1111122 
DISL,ioos:station:DISL:DISL:1,2013-12-03T02:30:00Z,30.2513,-88.0778,2.54,20.72,1111122 
DISL,ioos:station:DISL:DISL:1,2013-12-03T03:00:00Z,30.2513,-88.0778,2.547,21.09,1111122 
DISL,ioos:station:DISL:DISL:1,2013-12-03T03:30:00Z,30.2513,-88.0778,2.56,19.52,1111122 
DISL,ioos:station:DISL:DISL:1,2013-12-03T04:00:00Z,30.2513,-88.0778,2.586,21.52,1111122 
DISL,ioos:station:DISL:DISL:1,2013-12-03T04:30:00Z,30.2513,-88.0778,2.604,19.97,1111122 
DISL,ioos:station:DISL:DISL:1,2013-12-03T05:00:00Z,30.2513,-88.0778,2.563,19.06,1111122 
DISL,ioos:station:DISL:DISL:1,2013-12-03T05:30:00Z,30.2513,-88.0778,2.528,19.22,1111122 
DISL,ioos:station:DISL:DISL:1,2013-12-03T06:00:00Z,30.2513,-88.0778,2.498,19.24,1111122 
DISL,ioos:station:DISL:DISL:1,2013-12-03T06:30:00Z,30.2513,-88.0778,2.461,19.26,1111122 
DISL,ioos:station:DISL:DISL:1,2013-12-03T07:00:00Z,30.2513,-88.0778,2.414,19.24,1111122 
DISL,ioos:station:DISL:DISL:1,2013-12-03T07:30:00Z,30.2513,-88.0778,2.388,19.27,1111122 
DISL,ioos:station:DISL:DISL:1,2013-12-03T08:00:00Z,30.2513,-88.0778,2.35,21.08,1111122 
DISL,ioos:station:DISL:DISL:1,2013-12-03T08:30:00Z,30.2513,-88.0778,2.305,23.95,1111122 
DISL,ioos:station:DISL:DISL:1,2013-12-03T09:00:00Z,30.2513,-88.0778,2.258,25.81,1111122 
DISL,ioos:station:DISL:DISL:1,2013-12-03T09:30:00Z,30.2513,-88.0778,2.214,26.44,1111122 
DISL,ioos:station:DISL:DISL:1,2013-12-03T10:00:00Z,30.2513,-88.0778,2.188,26.65,1111122 
DISL,ioos:station:DISL:DISL:1,2013-12-03T10:30:00Z,30.2513,-88.0778,2.14,26.7,1111122 
DISL,ioos:station:DISL:DISL:1,2013-12-03T11:00:00Z,30.2513,-88.0778,2.116,25.53,1111122 
DISL,ioos:station:DISL:DISL:1,2013-12-03T11:30:00Z,30.2513,-88.0778,2.093,24.88,1111122 
DISL,ioos:station:DISL:DISL:1,2013-12-03T12:00:00Z,30.2513,-88.0778,2.073,24.83,1111122 
DISL,ioos:station:DISL:DISL:1,2013-12-03T12:30:00Z,30.2513,-88.0778,2.052,23.42,1111122 
DISL,ioos:station:DISL:DISL:1,2013-12-03T13:00:00Z,30.2513,-88.0778,2.045,22.47,1111122 
DISL,ioos:station:DISL:DISL:1,2013-12-03T13:30:00Z,30.2513,-88.0778,2.005,22.88,1111122 
DISL,ioos:station:DISL:DISL:1,2013-12-03T14:00:00Z,30.2513,-88.0778,1.986,23.54,1111122 
DISL,ioos:station:DISL:DISL:1,2013-12-03T14:30:00Z,30.2513,-88.0778,1.978,22.45,1111122 
DISL,ioos:station:DISL:DISL:1,2013-12-03T15:00:00Z,30.2513,-88.0778,1.973,21.75,1111122 
DISL,ioos:station:DISL:DISL:1,2013-12-03T15:30:00Z,30.2513,-88.0778,1.983,22.84,1111122 
DISL,ioos:station:DISL:DISL:1,2013-12-03T16:00:00Z,30.2513,-88.0778,1.985,23.16,1111122 
DISL,ioos:station:DISL:DISL:1,2013-12-03T16:30:00Z,30.2513,-88.0778,1.995,24.01,1111122 
DISL,ioos:station:DISL:DISL:1,2013-12-03T17:00:00Z,30.2513,-88.0778,1.989,24.58,1111122 
DISL,ioos:station:DISL:DISL:1,2013-12-03T17:30:00Z,30.2513,-88.0778,1.994,24.31,1111122 
DISL,ioos:station:DISL:DISL:1,2013-12-03T18:00:00Z,30.2513,-88.0778,1.999,24.35,1111122 
DISL,ioos:station:DISL:DISL:1,2013-12-03T18:30:00Z,30.2513,-88.0778,2.019,24.28,1111122 
DISL,ioos:station:DISL:DISL:1,2013-12-03T19:00:00Z,30.2513,-88.0778,2.022,23.7,1111122 
DISL,ioos:station:DISL:DISL:1,2013-12-03T19:30:00Z,30.2513,-88.0778,2.037,23.5,1111122 
DISL,ioos:station:DISL:DISL:1,2013-12-03T20:00:00Z,30.2513,-88.0778,2.048,22.83,1111122 
DISL,ioos:station:DISL:DISL:1,2013-12-03T20:30:00Z,30.2513,-88.0778,2.067,22.66,1111122 
DISL,ioos:station:DISL:DISL:1,2013-12-03T21:00:00Z,30.2513,-88.0778,2.093,22.75,1111122 
DISL,ioos:station:DISL:DISL:1,2013-12-03T21:30:00Z,30.2513,-88.0778,2.115,23.17,1111122 
DISL,ioos:station:DISL:DISL:1,2013-12-03T22:00:00Z,30.2513,-88.0778,2.162,22.99,1111122 
DISL,ioos:station:DISL:DISL:1,2013-12-03T22:30:00Z,30.2513,-88.0778,2.17,22.86,1111122 
DISL,ioos:station:DISL:DISL:1,2013-12-03T23:00:00Z,30.2513,-88.0778,2.193,22.91,1111122 
DISL,ioos:station:DISL:DISL:1,2013-12-03T23:30:00Z,30.2513,-88.0778,2.233,23.37,1111122 
DISL,ioos:station:DISL:DISL:1,2013-12-04T00:00:00Z,30.2513,-88.0778,2.275,22.96,1111122 
DISL,ioos:station:DISL:DISL:1,2013-12-04T00:30:00Z,30.2513,-88.0778,2.31,22.94,1111122 
DISL,ioos:station:DISL:DISL:1,2013-12-04T01:00:00Z,30.2513,-88.0778,2.353,22.93,1111122 
DISL,ioos:station:DISL:DISL:1,2013-12-04T01:30:00Z,30.2513,-88.0778,2.393,23.47,1111122 
DISL,ioos:station:DISL:DISL:1,2013-12-04T02:00:00Z,30.2513,-88.0778,2.425,22.79,1111122 
DISL,ioos:station:DISL:DISL:1,2013-12-04T02:30:00Z,30.2513,-88.0778,2.451,22.87,1111122 
DISL,ioos:station:DISL:DISL:1,2013-12-04T03:00:00Z,30.2513,-88.0778,2.472,23.17,1111122 
DISL,ioos:station:DISL:DISL:1,2013-12-04T03:30:00Z,30.2513,-88.0778,2.481,23.61,1111122 
DISL,ioos:station:DISL:DISL:1,2013-12-04T04:00:00Z,30.2513,-88.0778,2.493,23.65,1111122 
DISL,ioos:station:DISL:DISL:1,2013-12-04T04:30:00Z,30.2513,-88.0778,2.506,23.7,1111122 
DISL,ioos:station:DISL:DISL:1,2013-12-04T05:00:00Z,30.2513,-88.0778,2.489,23.53,1111122 
DISL,ioos:station:DISL:DISL:1,2013-12-04T05:30:00Z,30.2513,-88.0778,2.488,23.45,1111122 
DISL,ioos:station:DISL:DISL:1,2013-12-04T06:00:00Z,30.2513,-88.0778,2.463,23.36,1111122 
DISL,ioos:station:DISL:DISL:1,2013-12-04T06:30:00Z,30.2513,-88.0778,2.448,25.25,1111122 
DISL,ioos:station:DISL:DISL:1,2013-12-04T07:00:00Z,30.2513,-88.0778,2.42,25.32,1111122 
DISL,ioos:station:DISL:DISL:1,2013-12-04T07:30:00Z,30.2513,-88.0778,2.383,26.89,1111122 
DISL,ioos:station:DISL:DISL:1,2013-12-04T08:00:00Z,30.2513,-88.0778,2.35,25.96,1111122 
DISL,ioos:station:DISL:DISL:1,2013-12-04T08:30:00Z,30.2513,-88.0778,2.316,25.71,1111122 
DISL,ioos:station:DISL:DISL:1,2013-12-04T09:00:00Z,30.2513,-88.0778,2.276,25.99,1111122 
DISL,ioos:station:DISL:DISL:1,2013-12-04T09:30:00Z,30.2513,-88.0778,2.237,26.59,1111122 
DISL,ioos:station:DISL:DISL:1,2013-12-04T10:00:00Z,30.2513,-88.0778,2.216,27.34,1111122 
DISL,ioos:station:DISL:DISL:1,2013-12-04T10:30:00Z,30.2513,-88.0778,2.19,27.59,1111122 
DISL,ioos:station:DISL:DISL:1,2013-12-04T11:00:00Z,30.2513,-88.0778,2.156,27.84,1111122 
DISL,ioos:station:DISL:DISL:1,2013-12-04T11:30:00Z,30.2513,-88.0778,2.138,25.33,1111122 
DISL,ioos:station:DISL:DISL:1,2013-12-04T12:00:00Z,30.2513,-88.0778,2.122,23.89,1111122 
DISL,ioos:station:DISL:DISL:1,2013-12-04T12:30:00Z,30.2513,-88.0778,2.106,21.88,1111122 
DISL,ioos:station:DISL:DISL:1,2013-12-04T13:00:00Z,30.2513,-88.0778,2.097,20.37,1111122 
DISL,ioos:station:DISL:DISL:1,2013-12-04T13:30:00Z,30.2513,-88.0778,2.081,19.14,1111122 
DISL,ioos:station:DISL:DISL:1,2013-12-04T14:00:00Z,30.2513,-88.0778,2.069,18.47,1111122 
DISL,ioos:station:DISL:DISL:1,2013-12-04T14:30:00Z,30.2513,-88.0778,2.043,18.33,1111122 
DISL,ioos:station:DISL:DISL:1,2013-12-04T15:00:00Z,30.2513,-88.0778,2.04,18.02,1111122 
DISL,ioos:station:DISL:DISL:1,2013-12-04T15:30:00Z,30.2513,-88.0778,2.024,17.89,1111122 
DISL,ioos:station:DISL:DISL:1,2013-12-04T16:00:00Z,30.2513,-88.0778,2.019,18.06,1111122 
DISL,ioos:station:DISL:DISL:1,2013-12-04T16:30:00Z,30.2513,-88.0778,2.002,17.91,1111122 
DISL,ioos:station:DISL:DISL:1,2013-12-04T17:00:00Z,30.2513,-88.0778,2.014,18.27,1111122 
DISL,ioos:station:DISL:DISL:1,2013-12-04T17:30:00Z,30.2513,-88.0778,2.002,19.32,1111122 
DISL,ioos:station:DISL:DISL:1,2013-12-04T18:00:00Z,30.2513,-88.0778,2.024,19.51,1111122 
DISL,ioos:station:DISL:DISL:1,2013-12-04T18:30:00Z,30.2513,-88.0778,2.005,21.6,1111122 
DISL,ioos:station:DISL:DISL:1,2013-12-04T19:00:00Z,30.2513,-88.0778,2.018,22.34,1111122 
DISL,ioos:station:DISL:DISL:1,2013-12-04T19:30:00Z,30.2513,-88.0778,2.024,22.12,1111122 
DISL,ioos:station:DISL:DISL:1,2013-12-04T20:00:00Z,30.2513,-88.0778,2.042,22.94,1111122 
DISL,ioos:station:DISL:DISL:1,2013-12-04T20:30:00Z,30.2513,-88.0778,2.069,22.2,1111122 
DISL,ioos:station:DISL:DISL:1,2013-12-04T21:00:00Z,30.2513,-88.0778,2.093,20.02,1111122 
DISL,ioos:station:DISL:DISL:1,2013-12-04T21:30:00Z,30.2513,-88.0778,2.127,19.78,1111122 
DISL,ioos:station:DISL:DISL:1,2013-12-04T22:00:00Z,30.2513,-88.0778,2.16,20.15,1111122 
DISL,ioos:station:DISL:DISL:1,2013-12-04T22:30:00Z,30.2513,-88.0778,2.177,21.05,1111122 
DISL,ioos:station:DISL:DISL:1,2013-12-04T23:00:00Z,30.2513,-88.0778,2.193,22.42,1111122 
DISL,ioos:station:DISL:DISL:1,2013-12-04T23:30:00Z,30.2513,-88.0778,2.247,23.01,1111122 
DISL,ioos:station:DISL:DISL:1,2013-12-05T00:00:00Z,30.2513,-88.0778,2.27,24.73,1111122 
DISL,ioos:station:DISL:DISL:1,2013-12-05T00:30:00Z,30.2513,-88.0778,2.298,24.73,1111122 
DISL,ioos:station:DISL:DISL:1,2013-12-05T01:00:00Z,30.2513,-88.0778,2.328,24.93,1111122 
DISL,ioos:station:DISL:DISL:1,2013-12-05T01:30:00Z,30.2513,-88.0778,2.36,24.58,1111122 
DISL,ioos:station:DISL:DISL:1,2013-12-05T02:00:00Z,30.2513,-88.0778,2.389,23.97,1111122 
DISL,ioos:station:DISL:DISL:1,2013-12-05T02:30:00Z,30.2513,-88.0778,2.415,23.51,1111122 
DISL,ioos:station:DISL:DISL:1,2013-12-05T03:00:00Z,30.2513,-88.0778,2.443,23.57,1111122 
DISL,ioos:station:DISL:DISL:1,2013-12-05T03:30:00Z,30.2513,-88.0778,2.475,23.71,1111122 
DISL,ioos:station:DISL:DISL:1,2013-12-05T04:00:00Z,30.2513,-88.0778,2.485,23.69,1111122 
DISL,ioos:station:DISL:DISL:1,2013-12-05T04:30:00Z,30.2513,-88.0778,2.499,23.77,1111122 
DISL,ioos:station:DISL:DISL:1,2013-12-05T05:00:00Z,30.2513,-88.0778,2.502,23.9,1111122 
DISL,ioos:station:DISL:DISL:1,2013-12-05T05:30:00Z,30.2513,-88.0778,2.496,23.95,1111122 
DISL,ioos:station:DISL:DISL:1,2013-12-05T06:00:00Z,30.2513,-88.0778,2.483,24.08,1111122 
DISL,ioos:station:DISL:DISL:1,2013-12-05T06:30:00Z,30.2513,-88.0778,2.48,24.15,1111122 
DISL,ioos:station:DISL:DISL:1,2013-12-05T07:00:00Z,30.2513,-88.0778,2.451,24.16,1111122 
DISL,ioos:station:DISL:DISL:1,2013-12-05T07:30:00Z,30.2513,-88.0778,2.422,24.17,1111122 
DISL,ioos:station:DISL:DISL:1,2013-12-05T08:00:00Z,30.2513,-88.0778,2.395,24.2,1111122 
DISL,ioos:station:DISL:DISL:1,2013-12-05T08:30:00Z,30.2513,-88.0778,2.349,24.21,1111122 
DISL,ioos:station:DISL:DISL:1,2013-12-05T09:00:00Z,30.2513,-88.0778,2.31,24.23,1111122 
DISL,ioos:station:DISL:DISL:1,2013-12-05T09:30:00Z,30.2513,-88.0778,2.28,24.08,1111122 
DISL,ioos:station:DISL:DISL:1,2013-12-05T10:00:00Z,30.2513,-88.0778,2.266,24.32,1111122 
DISL,ioos:station:DISL:DISL:1,2013-12-05T10:30:00Z,30.2513,-88.0778,2.251,25.07,1111122 
DISL,ioos:station:DISL:DISL:1,2013-12-05T11:00:00Z,30.2513,-88.0778,2.233,25.88,1111122 
DISL,ioos:station:DISL:DISL:1,2013-12-05T11:30:00Z,30.2513,-88.0778,2.215,23.63,1111122 
DISL,ioos:station:DISL:DISL:1,2013-12-05T12:00:00Z,30.2513,-88.0778,2.184,22.4,1111122 
DISL,ioos:station:DISL:DISL:1,2013-12-05T12:30:00Z,30.2513,-88.0778,2.153,21.16,1111122 
DISL,ioos:station:DISL:DISL:1,2013-12-05T13:00:00Z,30.2513,-88.0778,2.125,20.55,1111122 
DISL,ioos:station:DISL:DISL:1,2013-12-05T13:30:00Z,30.2513,-88.0778,2.091,20.69,1111122 
DISL,ioos:station:DISL:DISL:1,2013-12-05T14:00:00Z,30.2513,-88.0778,2.074,20.64,1111122 
DISL,ioos:station:DISL:DISL:1,2013-12-05T14:30:00Z,30.2513,-88.0778,2.061,20.79,1111122 
DISL,ioos:station:DISL:DISL:1,2013-12-05T15:00:00Z,30.2513,-88.0778,2.037,20.61,1111122 
DISL,ioos:station:DISL:DISL:1,2013-12-05T15:30:00Z,30.2513,-88.0778,2.024,20.43,1111122 
DISL,ioos:station:DISL:DISL:1,2013-12-05T16:00:00Z,30.2513,-88.0778,2.0,19.95,1111122 
DISL,ioos:station:DISL:DISL:1,2013-12-05T16:30:00Z,30.2513,-88.0778,1.984,19.64,1111122 
DISL,ioos:station:DISL:DISL:1,2013-12-05T17:00:00Z,30.2513,-88.0778,1.989,19.67,1111122 
DISL,ioos:station:DISL:DISL:1,2013-12-05T17:30:00Z,30.2513,-88.0778,1.972,19.87,1111122 
DISL,ioos:station:DISL:DISL:1,2013-12-05T18:00:00Z,30.2513,-88.0778,1.976,21.7,1111122 
DISL,ioos:station:DISL:DISL:1,2013-12-05T18:30:00Z,30.2513,-88.0778,1.985,22.23,1111122 
DISL,ioos:station:DISL:DISL:1,2013-12-05T19:00:00Z,30.2513,-88.0778,1.992,22.36,1111122 
DISL,ioos:station:DISL:DISL:1,2013-12-05T19:30:00Z,30.2513,-88.0778,1.989,21.98,1111122 
DISL,ioos:station:DISL:DISL:1,2013-12-05T20:00:00Z,30.2513,-88.0778,2.011,22.38,1111122 
DISL,ioos:station:DISL:DISL:1,2013-12-05T20:30:00Z,30.2513,-88.0778,2.031,22.45,1111122 
DISL,ioos:station:DISL:DISL:1,2013-12-05T21:00:00Z,30.2513,-88.0778,2.052,22.63,1111122 
DISL,ioos:station:DISL:DISL:1,2013-12-05T21:30:00Z,30.2513,-88.0778,2.071,22.56,1111122 
DISL,ioos:station:DISL:DISL:1,2013-12-05T22:00:00Z,30.2513,-88.0778,2.097,22.02,1111122 
DISL,ioos:station:DISL:DISL:1,2013-12-05T22:30:00Z,30.2513,-88.0778,2.136,21.12,1111122 
DISL,ioos:station:DISL:DISL:1,2013-12-05T23:00:00Z,30.2513,-88.0778,2.147,20.64,1111122 
DISL,ioos:station:DISL:DISL:1,2013-12-05T23:30:00Z,30.2513,-88.0778,2.178,21.22,1111122 
DISL,ioos:station:DISL:DISL:1,2013-12-06T00:00:00Z,30.2513,-88.0778,2.209,21.4,1111122 
DISL,ioos:station:DISL:DISL:1,2013-12-06T00:30:00Z,30.2513,-88.0778,2.22,22.38,1111122 
DISL,ioos:station:DISL:DISL:1,2013-12-06T01:00:00Z,30.2513,-88.0778,2.263,24.17,1111122 
DISL,ioos:station:DISL:DISL:1,2013-12-06T01:30:00Z,30.2513,-88.0778,2.295,23.92,1111122 
DISL,ioos:station:DISL:DISL:1,2013-12-06T02:00:00Z,30.2513,-88.0778,2.324,23.55,1111122 
DISL,ioos:station:DISL:DISL:1,2013-12-06T02:30:00Z,30.2513,-88.0778,2.347,23.87,1111122 
DISL,ioos:station:DISL:DISL:1,2013-12-06T03:00:00Z,30.2513,-88.0778,2.382,23.91,1111122 
DISL,ioos:station:DISL:DISL:1,2013-12-06T03:30:00Z,30.2513,-88.0778,2.404,23.19,1111122 
DISL,ioos:station:DISL:DISL:1,2013-12-06T04:00:00Z,30.2513,-88.0778,2.429,22.74,1111122 
DISL,ioos:station:DISL:DISL:1,2013-12-06T04:30:00Z,30.2513,-88.0778,2.443,23.06,1111122 
DISL,ioos:station:DISL:DISL:1,2013-12-06T05:00:00Z,30.2513,-88.0778,2.45,23.43,1111122 
DISL,ioos:station:DISL:DISL:1,2013-12-06T05:30:00Z,30.2513,-88.0778,2.452,24.0,1111122 
DISL,ioos:station:DISL:DISL:1,2013-12-06T06:00:00Z,30.2513,-88.0778,2.444,24.68,1111122 
DISL,ioos:station:DISL:DISL:1,2013-12-06T06:30:00Z,30.2513,-88.0778,2.424,25.06,1111122 
DISL,ioos:station:DISL:DISL:1,2013-12-06T07:00:00Z,30.2513,-88.0778,2.415,25.3,1111122 
DISL,ioos:station:DISL:DISL:1,2013-12-06T07:30:00Z,30.2513,-88.0778,2.41,25.65,1111122 
DISL,ioos:station:DISL:DISL:1,2013-12-06T08:00:00Z,30.2513,-88.0778,2.408,25.89,1111122 
DISL,ioos:station:DISL:DISL:1,2013-12-06T08:30:00Z,30.2513,-88.0778,2.421,26.12,1111122 
DISL,ioos:station:DISL:DISL:1,2013-12-06T09:00:00Z,30.2513,-88.0778,2.421,26.27,1111122 
DISL,ioos:station:DISL:DISL:1,2013-12-06T09:30:00Z,30.2513,-88.0778,2.403,26.26,1111122 
DISL,ioos:station:DISL:DISL:1,2013-12-06T10:00:00Z,30.2513,-88.0778,2.369,26.25,1111122 
DISL,ioos:station:DISL:DISL:1,2013-12-06T10:30:00Z,30.2513,-88.0778,2.319,26.11,1111122 
DISL,ioos:station:DISL:DISL:1,2013-12-06T11:00:00Z,30.2513,-88.0778,2.277,25.8,1111122 
DISL,ioos:station:DISL:DISL:1,2013-12-06T11:30:00Z,30.2513,-88.0778,2.254,25.34,1111122 
DISL,ioos:station:DISL:DISL:1,2013-12-06T12:00:00Z,30.2513,-88.0778,2.246,25.99,1111122 
DISL,ioos:station:DISL:DISL:1,2013-12-06T12:30:00Z,30.2513,-88.0778,2.231,26.36,1111122 
DISL,ioos:station:DISL:DISL:1,2013-12-06T13:00:00Z,30.2513,-88.0778,2.235,26.36,1111122 
DISL,ioos:station:DISL:DISL:1,2013-12-06T13:30:00Z,30.2513,-88.0778,2.185,23.24,1111122 
DISL,ioos:station:DISL:DISL:1,2013-12-06T14:00:00Z,30.2513,-88.0778,2.159,22.09,1111122 